QTR40X OTHH-YSSY

Flight info

Callsign QTR40X
Flight time N/A
Altitude 33000
Route BUNDU3E/34R BUNDU B415 SIXIV N318 TOLDA P570 EMURU M300 VASTU P895 BIKOK M641 KAT N640 PIPOV DCT 0630S09500E DCT EPGUP DCT 11S100E 15S105E DCT UPNOT DCT ONSLO DCT PBO DCT DALPA DCT 28S130E 2930S13500E DCT LEC DCT SAPED J141 NEWMO H39 VELGI Y105 TARAL Y59 RIVET
Aircraft A359/H-SDE2E3GHIJ3J4J5LM1ORWXY/LB1D1

Departure

Time N/A
Airport Hamad International Airport (OTHH)

Arrival

Time 2026-05-04 09:53
Airport Sydney Kingsford Smith International Airport (YSSY)
Time Latitude Longitude Altitude Speed Heading
2026-05-04 08:41 -31.27049 141.52683 34287 ft 524 kts 114°
2026-05-04 08:41 -31.28597 141.56636 34256 ft 536 kts 114°
2026-05-04 08:42 -31.30120 141.60553 34232 ft 547 kts 114°
2026-05-04 08:42 -31.31739 141.64724 34367 ft 554 kts 114°
2026-05-04 08:42 -31.33332 141.68836 34682 ft 555 kts 114°
2026-05-04 08:42 -31.34923 141.72944 35058 ft 555 kts 114°
2026-05-04 08:43 -31.36517 141.77064 35423 ft 555 kts 114°
2026-05-04 08:43 -31.38107 141.81175 35790 ft 555 kts 114°
2026-05-04 08:43 -31.39682 141.85250 36093 ft 556 kts 114°
2026-05-04 08:43 -31.41274 141.89374 36427 ft 557 kts 114°
2026-05-04 08:44 -31.42863 141.93493 36412 ft 556 kts 114°
2026-05-04 08:44 -31.44464 141.97650 36064 ft 562 kts 114°
2026-05-04 08:46 -31.55744 142.27086 33114 ft 567 kts 114°
2026-05-04 08:46 -31.58961 142.35525 33116 ft 567 kts 114°
2026-05-04 08:47 -31.62170 142.43964 33113 ft 567 kts 114°
2026-05-04 08:47 -31.65379 142.52423 33110 ft 567 kts 113°
2026-05-04 08:48 -31.68586 142.60898 33110 ft 568 kts 113°
2026-05-04 08:48 -31.71785 142.69372 33110 ft 569 kts 113°
2026-05-04 08:49 -31.74988 142.77877 33113 ft 569 kts 113°
2026-05-04 08:50 -31.86153 143.07690 33105 ft 570 kts 113°
2026-05-04 08:51 -31.89332 143.16227 33102 ft 571 kts 113°
2026-05-04 08:51 -31.92517 143.24801 33102 ft 571 kts 113°
2026-05-04 08:52 -31.95692 143.33370 33099 ft 572 kts 112°
2026-05-04 08:52 -31.98311 143.40454 33100 ft 572 kts 112°
2026-05-04 08:54 -32.10129 143.75260 33097 ft 572 kts 109°
2026-05-04 08:55 -32.12936 143.84036 33100 ft 572 kts 109°
2026-05-04 08:55 -32.15765 143.92818 33099 ft 572 kts 109°
2026-05-04 09:01 -32.45136 144.85430 33102 ft 575 kts 109°
2026-05-04 09:01 -32.47903 144.94303 33099 ft 575 kts 109°
2026-05-04 09:02 -32.50674 145.03212 33098 ft 575 kts 109°
2026-05-04 09:02 -32.53434 145.12111 33100 ft 576 kts 108°
2026-05-04 09:03 -32.56193 145.21032 33096 ft 576 kts 108°
2026-05-04 09:03 -32.58960 145.30005 33096 ft 576 kts 108°
2026-05-04 09:04 -32.61711 145.38952 33095 ft 577 kts 108°
2026-05-04 09:04 -32.64436 145.47841 33100 ft 577 kts 108°
2026-05-04 09:05 -32.67171 145.56790 33097 ft 577 kts 108°
2026-05-04 09:05 -32.69918 145.65801 33098 ft 577 kts 108°
2026-05-04 09:06 -32.72634 145.74740 33101 ft 577 kts 108°
2026-05-04 09:08 -32.83450 146.10600 33091 ft 578 kts 108°
2026-05-04 09:08 -32.86149 146.19615 33092 ft 578 kts 108°
2026-05-04 09:09 -32.88857 146.28687 33094 ft 578 kts 108°
2026-05-04 09:09 -32.91522 146.37641 33094 ft 578 kts 108°
2026-05-04 09:10 -32.94199 146.46664 33091 ft 578 kts 107°
2026-05-04 09:10 -32.96887 146.55753 33092 ft 578 kts 107°
2026-05-04 09:11 -32.99533 146.64724 33092 ft 578 kts 107°
2026-05-04 09:11 -33.02194 146.73774 33096 ft 578 kts 107°
2026-05-04 09:12 -33.04844 146.82814 33091 ft 578 kts 107°
2026-05-04 09:14 -33.15405 147.19126 33093 ft 579 kts 107°
2026-05-04 09:14 -33.18028 147.28216 33091 ft 579 kts 107°
2026-05-04 09:15 -33.20640 147.37293 33094 ft 579 kts 107°
2026-05-04 09:15 -33.23250 147.46394 33094 ft 579 kts 107°
2026-05-04 09:17 -33.34922 147.87427 33100 ft 579 kts 107°
2026-05-04 09:18 -33.36504 147.91854 33104 ft 581 kts 120°
2026-05-04 09:18 -33.38806 147.95806 33100 ft 579 kts 130°
2026-05-04 09:18 -33.44097 148.03055 33103 ft 577 kts 135°
2026-05-04 09:19 -33.49615 148.10035 33104 ft 577 kts 136°
2026-05-04 09:19 -33.55122 148.17047 33106 ft 578 kts 135°
2026-05-04 09:20 -33.60576 148.24117 33104 ft 578 kts 135°
2026-05-04 09:20 -33.66012 148.31226 33103 ft 578 kts 134°
2026-05-04 09:21 -33.71439 148.38340 33103 ft 577 kts 134°
2026-05-04 09:21 -33.76853 148.45430 33103 ft 576 kts 134°
2026-05-04 09:22 -33.82271 148.52547 33101 ft 576 kts 134°
2026-05-04 09:22 -33.87675 148.59671 33100 ft 576 kts 134°
2026-05-04 09:23 -33.93078 148.66806 33099 ft 577 kts 134°
2026-05-04 09:23 -33.98470 148.73938 33098 ft 571 kts 134°
2026-05-04 09:25 -34.18771 148.93931 33096 ft 545 kts 171°
2026-05-04 09:25 -34.22427 148.95092 33094 ft 554 kts 172°
2026-05-04 09:26 -34.29963 148.97417 33094 ft 555 kts 172°
2026-05-04 09:26 -34.37451 148.99716 32644 ft 554 kts 172°
2026-05-04 09:27 -34.41174 149.00970 32018 ft 559 kts 167°
2026-05-04 09:27 -34.44773 149.02804 31449 ft 568 kts 156°
2026-05-04 09:27 -34.48134 149.05382 30809 ft 575 kts 144°
2026-05-04 09:27 -34.51064 149.08691 30213 ft 577 kts 131°
2026-05-04 09:28 -34.53408 149.12614 29529 ft 575 kts 118°
2026-05-04 09:28 -34.55030 149.17006 28847 ft 565 kts 104°
2026-05-04 09:28 -34.55759 149.21581 28190 ft 550 kts 89°
2026-05-04 09:28 -34.55808 149.26195 27535 ft 538 kts 82°
2026-05-04 09:29 -34.55535 149.30683 26899 ft 529 kts 78°
2026-05-04 09:29 -34.55126 149.35087 26272 ft 523 kts 76°
2026-05-04 09:29 -34.54685 149.39416 25677 ft 518 kts 76°
2026-05-04 09:29 -34.54254 149.43755 25049 ft 514 kts 77°
2026-05-04 09:30 -34.53856 149.48042 24467 ft 510 kts 77°
2026-05-04 09:30 -34.53487 149.52303 23888 ft 506 kts 78°
2026-05-04 09:30 -34.53140 149.56532 23262 ft 501 kts 78°
2026-05-04 09:30 -34.52806 149.60713 22580 ft 496 kts 78°
2026-05-04 09:31 -34.52479 149.64857 21919 ft 490 kts 78°
2026-05-04 09:31 -34.52265 149.67569 21507 ft 486 kts 78°
2026-05-04 09:31 -34.51945 149.71614 20870 ft 480 kts 79°
2026-05-04 09:31 -34.51623 149.75638 20243 ft 475 kts 79°
2026-05-04 09:32 -34.51305 149.79586 19655 ft 468 kts 79°
2026-05-04 09:32 -34.50989 149.83493 19064 ft 462 kts 79°
2026-05-04 09:34 -34.43999 150.07282 14757 ft 412 kts 56°
2026-05-04 09:34 -34.42650 150.10331 14283 ft 409 kts 56°
2026-05-04 09:34 -34.41311 150.13353 13800 ft 405 kts 56°
2026-05-04 09:34 -34.39984 150.16341 13306 ft 402 kts 56°
2026-05-04 09:35 -34.38660 150.19311 13044 ft 400 kts 56°
2026-05-04 09:35 -34.37349 150.22250 12886 ft 397 kts 56°
2026-05-04 09:35 -34.36045 150.25178 12739 ft 396 kts 56°
2026-05-04 09:35 -34.34738 150.28108 12562 ft 395 kts 56°
2026-05-04 09:37 -34.25638 150.48454 11213 ft 389 kts 57°
2026-05-04 09:37 -34.24353 150.51332 11035 ft 388 kts 56°
2026-05-04 09:38 -34.23089 150.54155 10821 ft 386 kts 57°
2026-05-04 09:38 -34.21795 150.57042 10629 ft 385 kts 56°
2026-05-04 09:38 -34.20540 150.59842 10437 ft 377 kts 56°
2026-05-04 09:38 -34.19342 150.62539 10218 ft 342 kts 56°
2026-05-04 09:39 -34.18280 150.64926 10027 ft 313 kts 56°
2026-05-04 09:39 -34.17273 150.67189 9764 ft 301 kts 55°
2026-05-04 09:39 -34.16285 150.69375 9473 ft 294 kts 55°
2026-05-04 09:39 -34.15303 150.71535 9182 ft 293 kts 55°
2026-05-04 09:40 -34.14326 150.73687 8909 ft 292 kts 55°
2026-05-04 09:40 -34.13353 150.75836 8616 ft 291 kts 55°
2026-05-04 09:40 -34.12389 150.77971 8338 ft 289 kts 55°
2026-05-04 09:40 -34.11429 150.80102 8064 ft 287 kts 55°
2026-05-04 09:41 -34.10475 150.82214 7790 ft 286 kts 55°
2026-05-04 09:42 -34.03928 150.96759 6009 ft 278 kts 56°
2026-05-04 09:43 -34.03286 150.98983 5989 ft 287 kts 76°
2026-05-04 09:43 -34.03472 151.01403 5986 ft 299 kts 105°
2026-05-04 09:43 -34.04584 151.03538 5999 ft 303 kts 130°
2026-05-04 09:43 -34.06038 151.05376 6050 ft 305 kts 133°
2026-05-04 09:44 -34.07561 151.07107 5768 ft 305 kts 141°
2026-05-04 09:44 -34.09471 151.08182 5294 ft 298 kts 166°
2026-05-04 09:44 -34.11496 151.08729 4800 ft 299 kts 170°
2026-05-04 09:46 -34.22663 151.16182 2997 ft 274 kts 86°
2026-05-04 09:46 -34.22645 151.18480 2987 ft 273 kts 83°
2026-05-04 09:46 -34.22520 151.20756 2985 ft 270 kts 76°
2026-05-04 09:47 -34.21789 151.22773 2992 ft 258 kts 46°
2026-05-04 09:47 -34.20447 151.24129 2994 ft 251 kts 26°
2026-05-04 09:49 -34.09466 151.21407 2718 ft 211 kts 346°
2026-05-04 09:49 -34.08103 151.21030 2428 ft 194 kts 347°
2026-05-04 09:49 -34.06824 151.20721 2136 ft 179 kts 351°
2026-05-04 09:51 -34.01011 151.19241 880 ft 116 kts 348°
2026-05-04 09:51 -34.00225 151.19040 688 ft 116 kts 351°
2026-05-04 09:51 -33.99386 151.18828 661 ft 131 kts 351°
2026-05-04 09:51 -33.98506 151.18590 483 ft 125 kts 351°
2026-05-04 09:52 -33.97742 151.18402 310 ft 117 kts 349°
2026-05-04 09:52 -33.96957 151.18198 182 ft 118 kts 350°
2026-05-04 09:52 -33.96235 151.18014 58 ft 122 kts 351°
2026-05-04 09:52 -33.95569 151.17841 35 ft 100 kts 348°
2026-05-04 09:53 -33.95165 151.17736 34 ft 26 kts 348°
2026-05-04 09:53 -33.94902 151.17668 35 ft 50 kts 347°
2026-05-04 09:53 -33.94566 151.17557 37 ft 49 kts 338°
2026-05-04 09:53 -33.94346 151.17379 35 ft 18 kts 317°
2026-05-04 09:54 -33.94326 151.17356 37 ft 0 kts 317°
2026-05-04 09:55 -33.94304 151.17334 36 ft 9 kts 321°
2026-05-04 09:55 -33.94229 151.17290 35 ft 14 kts 348°
2026-05-04 09:55 -33.94123 151.17263 35 ft 16 kts 347°
2026-05-04 09:56 -33.94077 151.17175 36 ft 15 kts 261°
2026-05-04 09:56 -33.94106 151.17039 35 ft 19 kts 254°
2026-05-04 09:56 -33.94139 151.16876 36 ft 20 kts 275°
2026-05-04 09:56 -33.94083 151.16800 34 ft 11 kts 305°
2026-05-04 09:57 -33.94092 151.16709 36 ft 18 kts 254°
2026-05-04 09:57 -33.94134 151.16535 36 ft 23 kts 253°
2026-05-04 09:57 -33.94172 151.16347 36 ft 21 kts 274°
2026-05-04 09:57 -33.94130 151.16314 36 ft 5 kts 25°
2026-05-04 09:58 -33.94072 151.16373 36 ft 13 kts 43°
2026-05-04 09:58 -33.94060 151.16388 36 ft 2 kts 43°
2026-05-04 09:58 -33.94058 151.16389 36 ft 0 kts 43°